Burlington, WI

8:14 PM CDT on July 27, 2017 (GMT -0500)
Burlington

Weather History for KBUU - July, 2013

Change the Weather History Date:

Saturday, July 13, 2013

  Actual Average (KENW) Record (KENW)
Temperature  
Mean Temperature 64 °F -  
Max Temperature 79 °F 80 °F 95 °F (1973)
Min Temperature 50 °F 61 °F 46 °F (2002)
Growing Degree Days 14 (Base 50)    
Moisture  
Dew Point 57 °F    
Average Humidity 75    
Maximum Humidity 100    
Minimum Humidity 46    
Precipitation  
Precipitation 0.00 in - - ()
Sea Level Pressure  
Sea Level Pressure 30.16 in    
Wind  
Wind Speed 2 mph (SE)    
Max Wind Speed 12 mph    
Max Gust Speed 20 mph    
Visibility 8 miles    
Events Fog    
Averages and records for this station are not official NWS values.
T = Trace of Precipitation, MM = Missing Value Source: NWS Daily Summary

Daily Weather History Graph

Daily Weather History Graph

Search for Another Location

Airport or City:

Trip Planner

Search our weather history database for the weather conditions in past years. The results will help you decide how hot, cold, wet, or windy it might be!

Date:

Astronomy

Jul. 13, 2013 Rise Set
Actual Time 5:27 AM CDT 8:30 PM CDT
Civil Twilight 4:53 AM CDT 9:04 PM CDT
Nautical Twilight 4:09 AM CDT 9:47 PM CDT
Astronomical Twilight 3:18 AM CDT 10:38 PM CDT
Moon 10:51 AM CDT (7/13) 11:01 PM CDT (7/13)
Length of Visible Light 16h 10m
Length of Day
15h 03m
Waxing Crescent, 26% of the Moon is Illuminated
Jul 13
Waxing Crescent
Jul 15
First Quarter
Jul 22
Full
Jul 29
Last Quarter
Aug 6
New

Hourly Weather History & Observations

Time (CDT) Temp. Dew Point Humidity Pressure Visibility Wind Dir Wind Speed Gust Speed Precip Events Conditions
12:15 AM 54.5 °F 54.3 °F 99% 30.12 in 1.2 mi Calm Calm - N/A   Mist
12:35 AM 54.5 °F 54.5 °F 100% 30.12 in 7.0 mi Calm Calm - N/A   Clear
12:55 AM 53.1 °F 53.1 °F 100% 30.12 in 5.0 mi Calm Calm - N/A   Clear
1:15 AM 51.4 °F 51.4 °F 100% 30.12 in 5.0 mi Calm Calm - N/A   Clear
1:35 AM 52.5 °F 52.5 °F 100% 30.13 in 5.0 mi Calm Calm - N/A   Clear
1:55 AM 52.7 °F 52.7 °F 100% 30.14 in 7.0 mi Calm Calm - N/A   Clear
2:15 AM 52.0 °F 52.0 °F 100% 30.14 in 7.0 mi Calm Calm - N/A   Clear
2:35 AM 52.9 °F 52.9 °F 100% 30.14 in 2.0 mi Calm Calm - N/A   Clear
2:55 AM 52.2 °F 52.2 °F 100% 30.14 in 4.0 mi Calm Calm - N/A   Clear
3:15 AM 52.0 °F 52.0 °F 100% 30.14 in 5.0 mi Calm Calm - N/A   Clear
3:35 AM 51.1 °F 51.1 °F 100% 30.14 in 5.0 mi Calm Calm - N/A   Clear
3:55 AM 51.4 °F 51.4 °F 100% 30.14 in 4.0 mi Calm Calm - N/A   Clear
4:15 AM 51.3 °F 51.3 °F 100% 30.14 in 0.5 mi Calm Calm - N/A Fog Fog
4:35 AM 51.3 °F 51.3 °F 100% 30.14 in 4.0 mi Calm Calm - N/A   Clear
4:55 AM 52.2 °F 52.2 °F 100% 30.15 in 5.0 mi Calm Calm - N/A   Clear
5:15 AM 50.4 °F 50.4 °F 100% 30.14 in 4.0 mi Calm Calm - N/A   Clear
5:35 AM 51.1 °F 51.1 °F 100% 30.14 in 0.5 mi Calm Calm - N/A Fog Fog
5:55 AM 50.4 °F 50.4 °F 100% 30.15 in 5.0 mi Calm Calm - N/A   Clear
6:15 AM 52.2 °F 52.2 °F 100% 30.16 in 7.0 mi Calm Calm - N/A   Clear
6:35 AM 54.0 °F 54.0 °F 100% 30.15 in 5.0 mi Calm Calm - N/A   Clear
6:55 AM 56.3 °F 56.3 °F 100% 30.17 in 7.0 mi Calm Calm - N/A   Clear
7:15 AM 57.9 °F 57.6 °F 99% 30.17 in 10.0 mi Calm Calm - N/A   Clear
7:35 AM 60.6 °F 59.2 °F 95% 30.17 in 10.0 mi Calm Calm - N/A   Clear
7:55 AM 64.0 °F 61.2 °F 90% 30.16 in 10.0 mi Calm Calm - N/A   Clear
8:15 AM 66.9 °F 62.1 °F 84% 30.16 in 10.0 mi SW 3.5 mph - N/A   Clear
8:35 AM 68.7 °F 63.3 °F 83% 30.16 in 10.0 mi South 3.5 mph - N/A   Clear
8:55 AM 71.6 °F 61.5 °F 70% 30.19 in 10.0 mi WSW 3.5 mph - N/A   Clear
9:15 AM 73.4 °F 60.8 °F 65% 30.18 in 10.0 mi SSW 5.8 mph - N/A   Clear
9:35 AM 74.7 °F 59.9 °F 60% 30.17 in 10.0 mi South 4.6 mph - N/A   Clear
9:55 AM 75.6 °F 60.1 °F 59% 30.18 in 10.0 mi SSW 5.8 mph - N/A   Clear
10:15 AM 76.1 °F 59.9 °F 57% 30.18 in 10.0 mi SSE 4.6 mph - N/A   Clear
10:35 AM 76.1 °F 59.4 °F 56% 30.18 in 10.0 mi SSE 6.9 mph - N/A   Clear
10:55 AM 76.6 °F 60.3 °F 57% 30.18 in 10.0 mi ESE 4.6 mph - N/A   Clear
11:15 AM 77.0 °F 59.4 °F 54% 30.18 in 10.0 mi SSE 5.8 mph - N/A   Clear
11:35 AM 77.9 °F 59.5 °F 53% 30.17 in 10.0 mi ESE 6.9 mph - N/A   Clear
11:55 AM 77.5 °F 58.5 °F 52% 30.17 in 10.0 mi SE 4.6 mph - N/A   Clear
12:15 PM 77.9 °F 59.9 °F 54% 30.17 in 10.0 mi ESE 6.9 mph - N/A   Clear
12:35 PM 78.1 °F 59.0 °F 52% 30.17 in 10.0 mi ESE 5.8 mph - N/A   Clear
12:55 PM 78.4 °F 57.2 °F 48% 30.17 in 10.0 mi SE 3.5 mph - N/A   Clear
1:15 PM 78.8 °F 57.9 °F 49% 30.17 in 10.0 mi SSE 3.5 mph - N/A   Clear
1:35 PM 79.0 °F 57.6 °F 48% 30.17 in 10.0 mi SE 8.1 mph - N/A   Clear
1:55 PM 79.0 °F 57.6 °F 48% 30.16 in 10.0 mi ESE 3.5 mph - N/A   Clear
2:15 PM 79.2 °F 58.6 °F 49% 30.17 in 10.0 mi ESE 8.1 mph - N/A   Clear
2:35 PM 79.3 °F 57.4 °F 47% 30.16 in 10.0 mi SE 8.1 mph - N/A   Clear
2:55 PM 78.8 °F 58.3 °F 49% 30.16 in 10.0 mi SE 8.1 mph - N/A   Clear
3:15 PM 79.0 °F 57.9 °F 48% 30.16 in 10.0 mi East 9.2 mph - N/A   Clear
3:35 PM 79.5 °F 58.1 °F 48% 30.16 in 10.0 mi East 11.5 mph - N/A   Clear
3:55 PM 79.2 °F 57.4 °F 47% 30.15 in 10.0 mi ESE 9.2 mph - N/A   Clear
4:15 PM 78.4 °F 58.3 °F 50% 30.15 in 10.0 mi East 9.2 mph 19.6 mph N/A   Clear
4:35 PM 78.4 °F 57.2 °F 48% 30.15 in 10.0 mi ESE 9.2 mph - N/A   Clear
4:55 PM 78.3 °F 56.8 °F 48% 30.15 in 10.0 mi East 10.4 mph - N/A   Clear
5:15 PM 78.1 °F 55.9 °F 46% 30.15 in 10.0 mi East 10.4 mph - N/A   Clear
5:35 PM 77.5 °F 55.0 °F 46% 30.15 in 10.0 mi ESE 6.9 mph - N/A   Clear
5:55 PM 77.2 °F 56.1 °F 48% 30.14 in 10.0 mi East 8.1 mph - N/A   Clear
6:15 PM 77.0 °F 57.4 °F 51% 30.14 in 10.0 mi East 8.1 mph - N/A   Clear
6:35 PM 76.5 °F 58.5 °F 54% 30.14 in 10.0 mi ESE 8.1 mph - N/A   Clear
6:55 PM 75.6 °F 59.5 °F 57% 30.14 in 10.0 mi East 9.2 mph - N/A   Clear
7:15 PM 74.7 °F 59.7 °F 60% 30.14 in 10.0 mi East 8.1 mph - N/A   Clear
7:35 PM 73.4 °F 60.1 °F 63% 30.14 in 10.0 mi East 5.8 mph - N/A   Clear
7:55 PM 72.1 °F 60.1 °F 66% 30.14 in 10.0 mi East 6.9 mph - N/A   Clear
8:15 PM 70.9 °F 59.9 °F 68% 30.14 in 10.0 mi East 4.6 mph - N/A   Clear
8:35 PM 68.9 °F 60.1 °F 73% 30.15 in 10.0 mi East 3.5 mph - N/A   Clear
8:55 PM 67.8 °F 59.9 °F 76% 30.16 in 10.0 mi East 3.5 mph - N/A   Clear
9:15 PM 67.8 °F 59.9 °F 76% 30.17 in 10.0 mi East 4.6 mph - N/A   Clear
9:35 PM 64.8 °F 59.7 °F 84% 30.17 in 10.0 mi Calm Calm - N/A   Clear
9:55 PM 63.5 °F 59.7 °F 87% 30.18 in 10.0 mi Calm Calm - N/A   Clear
10:15 PM 61.5 °F 59.0 °F 91% 30.18 in 10.0 mi Calm Calm - N/A   Clear
10:35 PM 61.9 °F 59.5 °F 92% 30.18 in 10.0 mi Calm Calm - N/A   Clear
10:55 PM 61.7 °F 59.5 °F 93% 30.18 in 10.0 mi Calm Calm - N/A   Clear
11:15 PM 60.4 °F 58.8 °F 94% 30.18 in 10.0 mi Calm Calm - N/A   Clear
11:35 PM 60.6 °F 59.0 °F 94% 30.18 in 10.0 mi Calm Calm - N/A   Clear
11:55 PM 59.9 °F 58.3 °F 94% 30.18 in 10.0 mi Calm Calm - N/A   Clear